Home   Weather   Prince George   Past weeks

Flag for Canada Past Weather in Prince George, British Columbia, Canada — Yesterday and Last 2 Weeks

39 °F


Feels Like: 33 °F
Forecast: 34 / 45 °F
Wind: 9 mph from North

Location: Prince George

Current Time: Oct 25, 2016 at 7:26:44 PM

Latest Report: Oct 25, 2016 at 7:00 PM

Visibility: 9 mi

Pressure: 29.94 "Hg (27.90 "Hg at 573m altitude)

Humidity: 100%

Dew Point: 39 °F

Location of Prince GeorgeLocation

Past Weather in Prince George — Graph


Prince George Temperature Yesterday

Maximum temperature yesterday: 45 °F (at 3:00 PM)
Minimum temperature yesterday: 34 °F (at 9:00 AM)
Average temperature yesterday: 39 °F

High & Low Weather Summary for the Past Weeks

High50 °F (Oct 20, 2:00 PM)100% (Oct 11, 1:00 AM)30.43 "Hg (Oct 11, 1:00 AM)
Low16 °F (Oct 11, 7:00 AM)42% (Oct 11, 5:00 PM)29.13 "Hg (Oct 16, 3:04 AM)
Average36 °F93%29.79 "Hg
* Reported Oct 10 6:00 PM — Oct 25 6:00 PM, Prince George, Weather by CustomWeather, © 2016

Note: Actual official high and low records may vary slightly from our data, if they occured in-between our weather recording intervals... More about our weather records


Prince George Weather History for the Previous 24 Hours

Scroll right to see more
Time TempWeatherWind HumidityBarometerVisibility
6:00 PM
Tue, Oct 25
41 °FPassing clouds.9 mph93%29.93 "Hg9 mi
5:00 PM43 °FBroken clouds.8 mph93%29.92 "Hg9 mi
4:00 PM45 °FMore clouds than sun.10 mph93%29.90 "Hg9 mi
3:00 PM45 °FMore clouds than sun.10 mph87%29.90 "Hg9 mi
2:58 PM45 °FMore clouds than sun.13 mph93%29.90 "Hg9 mi
2:00 PM45 °FLow clouds.9 mph93%29.89 "Hg9 mi
1:00 PM45 °FBroken clouds.6 mph93%29.90 "Hg9 mi
12:00 PM43 °FLow clouds.5 mph93%29.88 "Hg9 mi
11:00 AM41 °FLow clouds.6 mph100%29.86 "Hg9 mi
10:00 AM39 °FBroken clouds.7 mph100%29.85 "Hg9 mi
9:48 AM39 °FBroken clouds.7 mph100%29.84 "Hg9 mi
9:00 AM37 °FBroken clouds.9 mph100%29.82 "Hg9 mi
8:56 AM37 °FPartly sunny.10 mph100%29.82 "Hg9 mi
8:00 AM37 °FLight rain. Overcast.9 mph100%29.80 "Hg9 mi
7:00 AM37 °FLight rain. Overcast.9 mph100%29.78 "Hg9 mi
6:00 AM39 °FMostly cloudy.7 mph87%29.77 "Hg9 mi
5:00 AM37 °FMostly cloudy.2 mph93%29.75 "Hg9 mi
4:00 AM39 °FOvercast.9 mph81%29.74 "Hg9 mi
3:00 AM39 °FOvercast.12 mph81%29.74 "Hg9 mi
2:00 AM37 °FPassing clouds.14 mph87%29.72 "Hg9 mi
1:00 AM39 °FPassing clouds.16 mph81%29.72 "Hg9 mi
12:00 AM37 °FPassing clouds.14 mph93%29.74 "Hg9 mi
11:00 PM
Mon, Oct 24
37 °FOvercast.16 mph93%29.75 "Hg9 mi
10:00 PM37 °FPassing clouds.16 mph93%29.76 "Hg9 mi
9:00 PM39 °FLight rain. Overcast.15 mph93%29.78 "Hg9 mi
8:00 PM39 °FLight rain. Overcast.17 mph87%29.78 "Hg9 mi
7:00 PM41 °FOvercast.13 mph81%29.78 "Hg9 mi
Weather by CustomWeather, © 2016

See weather overviewHow to use our weather pages